Torna al catalogo

BREEZE-M DEB

TANK

AttivoHEO
NORAD 28116·DEBRIS·🇷🇺 Russia

Lanciato Dec 10, 2003 da Baikonur Cosmodrome

Loading…

Prossimi Passaggi (prossime 24 ore)

TLE

AggiornatoSource: Space-Track

Epoca: Sep 14, 2026, 08:54 UTC

1 28116U 03056E   26257.37143808  .00000213  00000-0  29380-3 0  9999
2 28116  52.9767  39.8466 5616751  70.4880 340.1161  4.51121044362379

Traccia BREEZE-M DEB in tempo reale con AllMySat

Download on the App Store